Weather History for Buffalo, SD

Change the Weather History Date:

Monday, May 27, 2013

  Actual Average Record
Temperature  
Mean Temperature 52 °F 57 °F  
Max Temperature 59 °F 69 °F 80 °F (2001)
Min Temperature 44 °F 45 °F 39 °F (1997)
Degree Days  
Heating Degree Days 13 8  
Month to date heating degree days 272 331  
Since 1 July heating degree days 7496 7784  
Cooling Degree Days 0 0  
Month to date cooling degree days 10 0  
Year to date cooling degree days 10 0  
Growing Degree Days 2 (Base 50)    
Moisture  
Dew Point 53 °F    
Average Humidity 92    
Maximum Humidity 100    
Minimum Humidity 83    
Precipitation  
Precipitation 0.20 in 0.15 in 0.20 in (2013)
Month to date precipitation 2.22 2.54  
Year to date precipitation 3.86 5.43  
Sea Level Pressure  
Sea Level Pressure 29.71 in    
Wind  
Wind Speed 9 mph (SSE)    
Max Wind Speed 43 mph    
Max Gust Speed 48 mph    
T = Trace of Precipitation, MM = Missing Value Source: NWS Daily Summary

Daily Weather History Graph

Daily Weather History Graph

Search for Another Location

Airport:

Trip Planner

Search our weather history database for the weather conditions in past years. The results will help you decide how hot, cold, wet, or windy it might be!

Date:

Astronomy

May. 27, 2013 Rise Set
Actual Time 5:11 AM MDT 8:31 PM MDT
Civil Twilight 4:35 AM MDT 9:08 PM MDT
Nautical Twilight 3:47 AM MDT 9:56 PM MDT
Astronomical Twilight 2:47 AM MDT 10:56 PM MDT
Moon 11:08 PM MDT (5/27) 7:53 AM MDT (5/27)
Length of Visible Light 16h 33m
Length of Day
15h 20m
Waning Gibbous, 90% of the Moon is Illuminated
May 27
Waning Gibbous
May 31
Last Quarter
Jun 8
New
Jun 16
First Quarter
Jun 23
Full

Hourly Weather History & Observations

Time (MDT) Temp. Dew Point Humidity Pressure Visibility Wind Dir Wind Speed Gust Speed Precip Events Conditions
12:56 AM 57.9 °F 57.9 °F 100% 29.81 in - South 13.8 mph - 0.03 in   Unknown
1:56 AM 57.0 °F 57.0 °F 100% 29.67 in - East 23.0 mph 26.5 mph 0.01 in   Unknown
2:56 AM 55.9 °F 55.9 °F 100% 29.71 in - SSE 8.1 mph - N/A   Unknown
3:56 AM 55.9 °F 55.9 °F 100% 29.74 in - South 8.1 mph - N/A   Unknown
4:56 AM 55.9 °F 55.0 °F 97% 29.77 in - SSE 3.5 mph - N/A   Unknown
5:56 AM 55.9 °F 55.9 °F 100% 29.76 in - SW 3.5 mph - N/A   Unknown
6:56 AM 57.0 °F 55.9 °F 96% 29.75 in - ESE 8.1 mph - N/A   Unknown
7:56 AM 57.9 °F 57.0 °F 97% 29.74 in - ESE 10.4 mph - N/A   Unknown
8:56 AM 57.9 °F 57.0 °F 97% 29.72 in - East 11.5 mph - N/A   Unknown
9:56 AM 57.9 °F 57.0 °F 97% 29.72 in - East 9.2 mph - N/A   Unknown
10:56 AM 57.9 °F 57.0 °F 97% 29.70 in - ESE 10.4 mph - N/A   Unknown
11:56 AM 57.9 °F 57.9 °F 100% 29.68 in - ESE 12.7 mph - 0.01 in   Unknown
12:39 PM 55.9 °F 51.1 °F 84% 29.76 in - West 21.9 mph 31.1 mph 0.04 in   Unknown
12:56 PM 53.1 °F 51.1 °F 93% 29.76 in - West 11.5 mph - 0.11 in   Unknown
1:56 PM 55.0 °F 50.0 °F 83% 29.70 in - NNW 4.6 mph - 0.05 in   Unknown
2:56 PM 54.0 °F 51.1 °F 90% 29.68 in - NNW 5.8 mph - 0.01 in   Unknown
3:56 PM 55.0 °F 52.0 °F 89% 29.65 in - NNE 9.2 mph - N/A   Unknown
4:56 PM 55.0 °F 53.1 °F 93% 29.66 in - ESE 8.1 mph - N/A   Unknown
5:56 PM 57.0 °F 53.1 °F 87% 29.70 in - WSW 11.5 mph - N/A   Unknown
6:37 PM 53.1 °F 50.0 °F 89% 29.67 in - NNW 27.6 mph 38.0 mph N/A   Unknown
6:56 PM 53.1 °F 51.1 °F 93% 29.64 in - NNW 23.0 mph 32.2 mph 0.01 in   Unknown
7:56 PM 53.1 °F 51.1 °F 93% 29.69 in - NNE 4.6 mph - N/A   Unknown
8:56 PM 52.0 °F 48.9 °F 89% 29.69 in - Calm Calm - N/A   Unknown
9:56 PM 51.1 °F 48.9 °F 92% 29.70 in - SSW 3.5 mph - N/A   Unknown
10:56 PM 48.9 °F 48.0 °F 97% 29.68 in - WSW 3.5 mph - N/A   Unknown
11:56 PM 46.9 °F 46.0 °F 97% 29.68 in - WSW 3.5 mph - N/A   Unknown